Wind_Speed
92 92 91 91 91 91 91 92 92 92 92 92 92 91 91 90 89 90 90 90 91 91 91 91 91 92 93 93 94 94 94 93 93 92 91 90 90 89 89 89 88 88 87 87 86 86 86 85 85 85 84 84 83 82 81 80 80 79 79 78 78 77 77 76 76 76 77 77 78 78 79 79 80 81 81 82 83 83 84 85 86 87 87 88 89 90
93 92 92 92 91 92 92 92 92 92 92 92 92 92 91 90 90 90 90 90 91 91 91 91 92 92 93 94 94 94 94 94 93 92 91 90 90 90 89 89 88 88 87 87 86 86 86 85 85 85 85 84 84 83 82 81 80 80 79 79 78 78 77 77 77 77 77 77 78 78 79 80 80 81 82 83 84 84 85 86 87 88 88 89 90 91
93 93 92 92 92 92 92 92 92 92 92 92 92 92 91 91 91 91 91 91 91 91 91 91 92 92 93 94 94 94 94 94 93 92 91 91 90 90 90 89 89 88 88 87 86 86 86 85 85 85 85 85 84 83 82 81 81 80 79 79 79 78 78 77 77 77 77 77 78 78 79 80 81 81 82 83 84 85 86 87 88 88 89 90 91 92
93 93 93 92 92 92 92 92 92 92 92 92 92 92 91 91 91 91 91 91 91 91 91 91 92 92 93 94 94 94 94 94 93 92 91 91 91 90 90 90 89 89 88 87 87 86 86 85 85 85 85 85 84 83 83 82 81 80 80 79 79 79 78 78 77 77 77 78 78 79 79 80 81 82 83 84 85 86 87 87 88 89 90 91 92 93
94 93 93 92 92 92 92 92 92 92 92 92 92 92 92 91 91 91 91 91 91 91 91 91 92 92 93 94 94 94 94 93 93 92 91 91 91 91 90 90 90 89 88 88 87 86 86 85 85 85 85 85 84 84 83 82 82 81 80 80 79 79 78 78 78 77 77 78 78 79 79 80 81 82 83 84 85 86 87 88 89 89 90 91 92 93
94 94 93 92 92 92 92 92 93 93 93 92 92 92 92 92 92 92 92 91 91 91 91 91 92 92 93 93 94 93 93 93 92 92 91 91 91 91 91 90 90 90 89 88 87 86 86 85 85 85 85 85 84 84 83 83 82 81 81 80 80 79 79 78 78 78 77 78 78 79 79 80 81 82 83 84 86 87 87 88 89 89 90 91 92 93
95 94 93 92 92 92 92 92 92 93 93 93 93 92 92 92 92 92 92 92 91 91 91 92 92 92 93 93 93 93 93 93 92 92 92 91 91 91 91 91 90 90 89 88 87 86 86 85 85 85 85 85 84 84 83 83 82 82 81 80 80 79 79 78 78 78 78 78 78 79 79 80 81 82 84 85 86 87 88 88 89 90 90 91 92 92
95 94 93 93 92 92 92 92 92 92 93 93 93 93 93 92 92 92 92 92 92 92 92 92 92 93 93 93 93 93 93 93 92 92 92 92 91 91 91 91 90 90 90 88 87 86 86 85 85 85 85 85 84 84 84 83 83 82 81 80 80 79 79 78 78 78 78 78 78 79 79 80 81 83 84 85 86 87 88 88 89 89 90 91 91 92
95 94 93 93 92 92 92 92 92 92 92 93 93 93 93 93 93 93 92 92 92 92 92 92 93 93 93 93 93 93 93 92 92 92 92 92 91 91 91 91 91 90 89 88 87 87 86 85 85 85 85 84 84 84 84 83 83 82 81 81 80 79 79 78 78 78 78 78 78 79 79 80 82 83 84 86 87 87 88 88 89 89 90 90 91 91
94 94 93 93 92 92 91 92 92 92 92 93 93 93 93 93 93 93 93 93 92 92 92 92 93 93 93 93 93 93 92 92 92 92 92 91 91 91 91 91 90 90 89 88 87 86 86 85 85 85 84 84 84 84 84 83 83 82 81 81 80 79 78 78 78 78 78 78 79 79 80 81 82 83 85 86 87 87 87 88 88 89 89 90 90 91
94 93 93 92 92 92 91 92 92 92 92 93 93 93 93 93 94 94 94 94 93 92 92 92 93 93 93 93 93 92 92 92 92 92 91 91 91 91 90 90 90 90 89 88 87 86 86 85 85 85 84 84 84 84 84 83 83 82 81 81 80 79 78 78 78 78 78 78 79 79 80 81 82 84 85 86 86 87 87 87 88 88 89 89 90 90
94 93 93 92 92 91 91 92 92 92 92 93 93 93 94 94 94 93 93 94 93 93 93 93 92 93 93 93 93 93 92 92 92 92 91 91 90 90 90 90 89 89 88 88 87 86 86 85 85 84 84 84 84 84 83 83 83 82 81 81 80 79 78 78 78 78 78 78 79 79 80 82 83 84 85 85 86 86 86 87 87 88 88 89 89 90
93 93 92 92 91 91 92 92 92 92 92 93 93 94 94 94 93 93 93 93 93 93 93 93 93 92 92 92 92 92 92 92 92 91 91 90 90 90 90 89 89 88 88 87 87 86 86 85 85 84 84 84 84 84 83 83 83 82 81 80 79 79 78 78 78 78 78 78 79 80 81 82 83 84 84 85 85 85 86 86 87 87 88 88 89 90
93 92 92 91 91 91 91 92 92 92 93 93 93 94 94 94 93 93 93 93 93 92 92 92 92 92 92 91 91 91 91 91 91 90 90 90 90 89 89 89 88 88 87 87 87 86 85 85 84 84 84 84 84 83 83 83 82 81 81 80 79 79 78 78 78 78 78 78 79 80 81 82 83 83 84 84 84 84 85 85 86 87 87 88 89 90
92 91 91 91 91 91 92 92 92 92 93 93 93 93 93 93 93 92 92 92 92 92 91 92 92 92 91 91 91 90 90 90 90 90 89 89 89 89 89 88 88 87 87 86 86 86 85 84 84 84 84 83 83 83 83 82 82 81 80 79 79 78 78 78 78 78 78 78 79 80 81 82 82 83 83 83 83 84 84 85 86 86 87 88 89 90
91 91 91 91 91 91 92 92 92 92 93 93 93 93 93 93 92 91 91 92 92 91 91 91 92 91 91 90 90 89 89 89 89 89 89 89 89 89 88 88 88 87 86 86 86 85 85 84 84 83 83 83 83 82 82 81 81 80 80 79 79 78 78 78 78 78 78 79 80 80 81 81 82 82 82 82 83 83 84 84 85 86 87 88 89 90
90 90 90 90 91 91 91 91 92 92 92 93 93 92 92 92 91 91 91 91 91 91 91 90 90 91 91 90 89 88 88 88 88 88 88 89 89 88 87 87 87 86 85 85 85 85 84 84 83 83 82 82 82 82 81 81 80 79 79 79 78 78 78 78 78 78 78 79 80 80 80 81 81 81 81 81 82 82 83 84 85 86 87 88 88 89
90 90 90 90 91 91 91 91 91 92 92 92 92 92 91 91 90 90 90 90 90 90 90 89 89 89 90 90 90 88 86 87 87 87 87 88 89 88 87 86 86 85 85 85 84 84 83 83 82 82 81 81 81 81 80 80 79 79 78 78 78 78 78 78 78 79 79 79 79 80 80 79 80 80 80 81 81 82 83 84 85 86 86 87 88 88
89 89 90 90 91 91 91 91 91 91 91 92 91 91 90 90 90 89 89 89 89 89 89 89 88 88 89 90 89 88 86 86 86 87 87 88 88 87 86 85 85 84 84 84 84 83 82 82 81 81 80 80 80 80 80 79 79 78 78 78 78 78 78 79 79 79 79 79 79 79 78 79 79 79 79 80 81 82 83 84 85 85 86 86 87 87
89 89 89 90 90 90 91 91 91 91 91 90 90 90 90 89 89 89 89 89 88 88 88 88 88 88 88 88 88 87 86 85 85 86 86 87 87 86 85 84 84 84 84 83 83 82 81 81 80 80 79 79 79 79 79 78 78 78 78 78 78 78 79 79 79 79 79 78 78 78 78 78 78 78 79 80 81 81 83 83 84 85 85 85 85 86
88 89 89 89 89 90 90 90 90 90 90 89 89 89 89 88 88 88 88 88 87 87 87 87 87 87 87 87 87 86 85 85 85 85 85 85 85 85 84 84 83 83 83 82 82 81 80 79 79 78 78 78 78 78 78 78 78 78 78 78 78 79 79 79 79 79 78 78 77 77 77 77 77 78 79 79 80 81 82 83 83 84 84 84 84 85
88 88 88 88 88 89 90 90 89 89 88 88 88 88 88 87 87 87 87 86 86 86 86 86 86 85 85 86 86 85 84 84 84 84 84 84 84 84 83 83 82 82 82 81 81 80 78 78 77 77 77 77 77 77 77 77 77 77 78 78 78 79 79 79 79 78 77 77 76 76 76 76 77 77 78 79 80 81 82 83 83 83 83 83 83 83
87 87 87 87 88 88 88 89 89 88 87 87 87 86 86 86 86 86 85 85 85 85 84 84 84 84 84 84 84 84 83 83 82 82 82 82 83 83 82 82 81 81 81 80 79 78 77 76 76 76 76 76 77 77 77 77 77 77 77 78 78 79 79 79 78 77 77 76 76 75 75 75 76 77 78 79 80 81 82 82 82 82 81 81 82 82
86 86 86 86 86 87 87 87 87 87 86 85 85 85 85 85 84 84 84 83 83 83 83 83 82 82 82 82 83 83 82 82 81 80 80 81 81 81 81 81 80 80 79 78 77 76 75 75 75 75 75 76 76 76 76 76 76 77 77 78 78 79 78 78 77 77 76 76 75 75 75 75 76 77 78 79 80 81 81 81 81 81 80 80 80 81
84 84 85 85 85 86 86 86 86 86 85 84 84 84 83 83 83 82 82 82 82 82 81 81 81 81 81 81 81 81 81 80 79 79 79 79 79 80 80 80 79 79 78 76 75 74 74 73 73 74 74 75 75 76 76 76 76 77 77 78 78 78 78 77 77 76 76 75 75 74 74 75 75 76 77 78 79 80 80 80 80 79 79 78 79 80
82 82 83 84 84 84 85 85 85 85 84 83 82 82 82 81 81 81 81 81 81 80 80 80 79 79 79 79 80 80 79 79 78 77 77 77 78 79 79 78 78 77 76 75 73 72 72 72 72 73 74 74 75 75 75 76 76 77 77 78 78 77 77 77 76 76 75 75 74 74 74 75 75 76 77 78 79 79 79 79 78 77 77 77 77 78
80 80 81 82 82 83 84 84 84 84 83 82 81 80 80 79 79 79 80 79 79 78 78 78 78 78 77 77 78 78 78 77 76 76 75 76 76 77 78 77 76 75 74 73 72 71 70 71 71 72 73 74 74 74 75 76 76 77 77 77 77 77 76 76 76 75 75 74 74 74 74 75 75 76 77 78 78 79 78 78 77 76 75 75 75 76
78 78 79 79 80 81 82 83 83 83 83 82 80 79 78 77 78 78 78 78 77 76 76 76 76 76 76 76 76 76 76 76 75 75 74 74 75 76 76 75 74 73 72 71 70 69 69 70 70 71 72 73 73 74 75 76 76 77 77 77 76 76 76 76 75 75 74 74 73 74 74 74 75 76 77 77 78 78 77 76 75 74 73 73 73 73
76 76 77 77 78 79 80 81 81 82 82 81 80 78 76 76 76 76 76 76 75 75 74 74 74 74 74 74 74 74 74 75 75 74 73 74 74 74 74 73 72 71 70 69 68 68 68 68 69 70 71 72 73 74 75 76 76 76 76 76 76 76 75 75 75 74 73 73 73 73 74 74 75 76 76 77 77 76 76 74 73 72 71 71 70 70
75 75 75 75 76 76 77 78 79 80 80 80 79 78 76 74 74 74 74 74 73 73 72 72 72 72 72 72 72 73 73 74 74 73 73 73 73 73 72 71 70 69 68 67 67 67 67 67 68 69 70 71 72 74 75 76 76 76 76 75 75 75 75 75 74 73 73 73 73 73 73 74 74 75 76 76 76 75 74 73 72 71 70 69 67 67
73 73 73 73 74 74 74 75 76 77 78 78 78 77 75 74 73 73 73 72 72 71 71 70 70 69 69 70 71 72 73 74 73 72 72 72 71 70 69 69 68 67 66 65 65 65 65 66 67 68 69 71 72 74 75 75 75 75 75 75 75 75 74 74 73 73 72 72 72 72 73 73 74 75 75 75 75 74 73 72 71 69 68 66 65 64
71 71 72 72 72 72 72 73 73 74 75 76 76 76 75 73 72 71 71 70 70 69 69 68 68 68 68 69 70 71 72 73 73 72 71 70 69 68 67 66 66 66 65 64 63 63 64 65 66 67 69 70 72 73 74 75 75 74 74 74 74 74 74 73 73 72 72 72 72 72 72 73 74 74 75 75 74 73 72 71 70 68 66 63 62 61
70 70 70 70 70 70 70 71 71 72 73 73 74 74 73 72 70 69 69 68 68 67 67 66 66 67 67 68 69 70 71 72 72 70 69 68 67 66 65 65 65 64 63 62 62 61 62 63 65 67 69 70 72 73 74 74 74 74 73 73 73 73 73 73 72 72 71 71 71 72 72 73 73 74 74 74 73 72 71 70 68 66 63 61 59 58
69 68 68 68 69 69 69 69 70 70 71 71 72 72 71 70 69 67 67 66 65 65 65 65 65 66 67 68 69 70 70 70 70 69 67 66 65 64 64 63 63 63 62 61 60 60 60 62 63 66 68 70 72 73 74 74 73 73 73 73 73 73 72 72 72 71 71 71 71 71 72 72 73 74 74 74 73 72 70 69 67 64 61 59 57 55
67 67 67 67 67 67 68 68 68 69 69 69 70 70 69 68 67 66 65 64 63 63 63 64 65 65 66 67 68 68 69 69 68 66 65 64 63 63 62 62 62 61 61 60 59 59 60 61 63 65 67 69 71 72 73 73 73 72 72 72 72 72 71 71 71 71 70 70 70 71 71 72 73 74 74 73 72 71 70 68 65 62 59 57 55 53
66 66 66 66 66 66 66 67 67 67 67 67 68 67 67 66 65 64 63 62 62 62 63 63 64 65 65 66 66 67 67 67 66 65 63 63 62 62 61 61 60 60 59 59 59 59 60 61 63 64 66 68 70 71 72 72 72 72 71 71 71 71 70 70 70 70 70 70 70 70 71 72 73 73 73 72 71 70 68 66 63 60 57 55 52 50
65 65 65 65 65 65 65 65 65 66 66 66 66 65 64 64 63 62 62 61 61 62 62 63 63 63 64 64 64 65 65 65 64 63 62 61 61 60 60 60 59 59 58 58 58 59 60 61 62 64 65 67 68 69 70 71 71 71 71 70 70 70 70 69 69 69 69 69 69 70 71 72 72 73 72 71 70 68 66 64 60 58 55 53 50 48
63 64 64 64 64 64 64 64 64 64 64 64 64 63 62 62 62 61 61 61 61 61 61 61 62 62 62 62 62 63 63 63 63 62 61 60 60 59 59 59 58 58 58 58 58 59 60 61 62 64 65 66 67 68 69 69 70 70 70 69 69 69 69 69 69 69 69 68 69 69 71 71 72 72 71 69 68 66 64 61 58 55 53 50 48 46
62 62 62 63 63 63 63 63 63 63 63 63 62 61 61 61 60 60 60 60 60 60 60 60 60 60 60 61 61 61 61 61 61 61 60 60 59 58 58 58 58 57 57 57 58 59 59 60 62 63 64 65 66 67 67 68 69 69 68 68 68 68 68 68 68 68 68 68 69 69 70 71 71 70 69 67 66 64 61 58 55 53 51 48 45 44
61 61 62 62 62 62 62 62 62 62 62 61 61 60 60 60 59 59 59 59 59 59 59 59 59 59 59 59 59 59 59 59 59 59 59 59 58 58 57 57 57 57 57 57 58 58 59 60 61 62 63 64 65 66 67 67 67 67 67 67 67 66 66 67 67 67 67 68 68 70 70 70 69 68 67 65 63 61 58 55 53 51 48 46 44 42
60 61 61 61 61 61 61 61 61 61 61 60 60 59 59 58 58 58 58 58 58 58 58 58 58 58 57 57 57 57 58 58 58 58 58 58 57 57 56 56 56 56 57 57 57 58 59 59 60 61 62 63 64 64 65 66 67 66 66 65 65 65 65 66 66 67 67 68 68 69 70 69 68 66 65 63 61 58 55 53 51 48 45 43 41 40
59 59 60 59 60 60 60 60 60 60 59 59 59 58 57 57 57 57 57 57 57 57 57 57 57 56 56 56 56 56 57 57 57 57 57 57 57 56 56 56 56 56 56 56 57 57 58 59 60 61 62 62 63 63 64 65 66 65 64 64 63 63 63 64 65 66 67 68 68 69 69 68 66 64 63 61 59 56 53 50 48 45 43 41 39 38
58 58 58 58 58 58 58 58 59 59 58 58 57 57 56 56 55 55 56 56 56 56 56 56 55 55 55 55 55 55 56 56 57 57 57 56 56 56 55 55 55 55 55 56 56 57 58 58 59 60 61 61 62 62 64 64 65 64 63 62 61 62 62 63 64 65 66 67 68 68 67 66 64 62 60 58 56 54 51 48 45 43 40 38 37 35
56 57 57 57 57 57 57 57 57 57 57 57 56 56 55 54 54 54 55 55 55 55 55 54 54 53 53 54 54 55 55 56 56 56 56 56 55 55 55 55 55 55 55 55 56 56 57 58 59 60 60 60 61 62 63 63 63 63 61 60 60 60 61 62 63 64 66 67 67 67 66 64 61 59 58 56 54 51 48 45 42 40 38 36 34 33
55 55 55 55 55 55 56 56 56 56 56 55 55 54 54 53 53 54 54 54 54 54 54 53 52 52 52 53 54 54 55 55 55 55 55 55 55 55 55 55 54 54 54 55 55 56 57 58 58 59 59 59 60 61 62 62 61 61 60 59 59 59 60 61 62 63 65 66 66 65 64 61 59 57 55 53 51 49 46 42 39 37 35 34 32 31
54 54 54 54 54 54 55 55 55 55 54 54 54 54 53 53 53 53 53 53 53 53 52 52 51 51 52 52 53 54 55 55 55 55 55 55 54 54 54 54 54 54 54 54 54 55 56 57 57 58 58 59 60 61 61 60 60 59 58 58 58 58 59 60 61 62 63 64 64 63 61 59 56 54 52 51 49 46 43 39 37 34 33 31 30 29
53 53 53 53 53 54 54 54 54 54 54 53 53 53 53 52 52 52 52 52 52 51 51 50 50 51 51 52 53 53 54 55 55 55 55 54 54 54 54 53 53 53 53 53 54 54 55 55 56 57 58 59 60 60 60 59 58 57 56 56 57 57 58 59 60 61 62 62 62 61 58 55 53 51 49 48 46 44 40 36 34 32 31 29 28 28
52 52 53 53 53 53 53 53 53 53 53 53 53 52 52 52 51 51 51 51 50 50 50 49 50 50 51 52 52 53 54 54 55 55 55 54 54 53 53 53 52 52 52 52 52 53 53 54 55 56 57 58 59 59 58 57 56 56 55 55 56 57 58 58 59 60 60 61 60 58 55 53 50 48 47 46 44 41 37 34 31 30 29 28 27 26
51 52 52 52 52 52 52 52 52 52 52 52 52 52 51 51 51 51 50 50 49 49 49 49 49 50 51 51 52 53 53 54 54 55 55 54 54 53 52 52 52 51 51 51 51 52 52 53 54 55 56 57 58 58 57 56 55 54 54 54 55 55 56 57 57 58 59 59 58 55 53 50 47 45 44 43 42 39 35 31 29 28 27 26 25 25
51 51 51 51 51 51 51 51 52 52 52 51 51 51 50 50 50 50 49 49 48 48 48 48 49 49 50 51 52 53 53 54 54 54 54 54 53 53 52 51 51 50 50 50 50 50 51 52 53 55 56 57 57 56 55 55 54 54 53 54 54 54 55 55 55 56 57 57 55 53 50 47 44 42 42 41 39 36 32 29 27 26 25 24 24 24
50 50 50 50 51 51 51 51 51 51 51 51 50 50 50 49 49 49 48 48 48 47 48 48 48 49 50 51 52 53 53 53 54 54 54 53 53 52 51 51 50 49 49 49 49 49 50 51 53 54 56 56 56 55 54 53 53 53 53 53 53 53 53 53 53 54 54 54 53 51 47 44 42 40 39 38 36 33 30 27 25 24 24 23 23 23
Wind_Direction
280 280 280 280 280 280 279 279 279 279 279 279 279 279 279 278 277 277 276 276 275 275 275 275 275 275 275 275 276 276 276 276 277 277 277 278 278 278 278 278 278 279 279 279 280 280 280 280 280 280 280 279 279 278 277 277 276 275 274 273 273 272 271 271 270 269 269 268 268 267 267 267 267 266 266 266 265 265 264 264 263 263 262 262 261 261
280 280 280 280 280 279 279 279 279 279 279 279 279 279 279 278 278 277 276 276 275 275 275 275 275 275 275 275 275 276 276 276 277 277 278 278 278 278 278 278 278 279 279 279 279 280 280 280 280 280 279 279 279 278 277 277 276 275 274 273 273 272 271 270 270 269 268 268 267 267 267 266 266 266 266 265 265 264 264 263 263 263 262 262 262 261
280 280 280 280 279 279 279 279 279 279 278 278 279 279 278 278 277 277 276 276 275 275 275 275 275 275 275 275 275 276 276 276 277 277 278 278 278 278 279 279 279 279 279 279 279 280 280 280 280 280 279 279 279 278 278 277 276 275 274 273 273 272 271 271 270 269 269 268 267 267 267 266 266 266 265 265 265 264 264 263 263 263 262 262 262 261
279 279 279 279 279 279 279 279 279 279 278 278 278 278 278 278 277 277 276 276 276 276 275 275 275 275 275 275 275 276 276 277 277 278 278 278 279 279 279 279 279 279 279 279 279 279 280 280 280 279 279 279 279 278 278 277 276 275 274 274 273 272 272 271 270 270 269 268 268 267 267 267 266 266 265 265 265 264 264 263 263 262 262 262 261 261
279 279 279 279 279 279 279 278 278 278 278 278 278 278 278 277 277 277 277 276 276 276 275 275 275 275 275 275 275 276 276 277 277 278 278 279 279 279 279 280 280 280 280 280 280 280 280 280 280 279 279 279 279 278 278 277 276 276 275 274 273 272 272 271 271 270 269 269 268 268 268 267 267 266 266 265 265 265 264 264 263 263 262 262 261 261
278 278 278 278 278 278 278 278 278 278 278 278 278 277 277 277 277 277 277 277 276 276 276 275 275 275 275 276 276 276 277 277 278 278 278 279 279 279 280 280 280 280 280 280 280 280 280 280 280 280 279 279 279 278 278 277 277 276 275 274 273 273 272 272 271 271 270 270 269 269 268 268 267 267 267 266 266 265 265 264 264 263 263 263 262 262
278 278 278 278 278 277 277 277 277 277 277 277 277 277 277 277 277 276 276 276 276 276 276 276 275 275 276 276 276 277 277 277 278 278 279 279 279 280 280 280 280 280 280 280 280 280 280 280 280 280 279 279 279 278 278 277 277 276 275 274 274 273 273 272 272 271 271 270 270 269 269 268 268 268 267 267 266 266 265 265 265 264 264 263 263 263
278 278 277 277 277 277 277 277 277 277 277 277 277 277 277 277 276 276 276 276 276 276 276 276 276 276 276 276 276 277 277 278 278 278 279 279 279 280 280 280 280 281 281 281 281 281 280 280 280 280 279 279 279 278 278 278 277 276 275 275 274 273 273 273 272 272 271 271 270 270 269 269 269 268 268 267 267 267 266 266 266 265 265 264 264 264
277 277 277 277 277 277 276 276 276 276 276 276 276 276 276 276 276 276 276 276 276 276 275 275 276 276 276 276 276 277 277 278 278 278 279 279 279 280 280 280 280 281 281 281 281 281 281 280 280 280 279 279 279 278 278 278 277 276 276 275 275 274 273 273 273 272 272 271 271 270 270 270 269 269 268 268 268 267 267 267 267 266 266 265 265 265
276 276 276 276 276 276 276 276 276 276 276 276 275 275 275 275 275 275 275 275 275 275 275 275 275 276 276 276 276 277 277 277 278 278 279 279 279 280 280 280 280 281 281 281 281 281 281 281 280 280 280 279 279 278 278 278 277 276 276 275 275 274 274 273 273 273 272 272 272 271 271 270 270 269 269 269 268 268 268 268 267 267 267 266 266 266
276 276 276 276 276 276 275 275 275 275 275 275 275 275 275 275 274 275 275 275 275 275 275 275 275 275 276 276 277 277 277 277 278 278 278 279 279 280 280 280 280 281 281 281 281 281 281 281 280 280 280 279 279 279 278 278 277 277 276 276 275 275 274 274 274 273 273 273 272 272 271 271 270 270 270 269 269 269 269 269 268 268 268 267 267 266
276 276 276 275 275 275 275 275 275 275 275 275 274 274 274 274 274 274 275 275 275 276 276 276 276 276 276 276 277 277 277 277 278 278 278 279 279 280 280 280 280 281 281 281 281 281 281 280 280 280 280 279 279 279 278 278 277 277 276 276 276 275 275 274 274 274 273 273 273 272 272 271 271 271 270 270 270 270 270 270 269 269 268 268 268 267
275 275 275 275 275 275 275 275 275 275 274 274 274 274 274 274 275 275 275 275 275 276 276 276 276 276 276 276 277 277 277 277 278 278 279 279 279 280 280 280 280 281 281 281 281 281 280 280 280 280 280 279 279 279 278 278 277 277 276 276 276 276 275 275 275 274 274 274 273 273 273 272 272 271 271 271 271 271 271 270 270 270 269 269 268 268
275 275 275 275 275 275 275 274 274 274 274 274 274 274 274 275 275 275 275 275 275 276 276 276 276 276 277 277 277 277 277 277 278 278 279 279 279 280 280 280 280 280 281 281 281 281 280 280 280 280 280 279 279 278 278 277 277 277 277 276 276 276 276 275 275 275 274 274 274 273 273 272 272 272 272 272 272 272 272 271 271 271 270 270 269 268
275 275 275 275 275 275 274 274 274 274 274 274 274 274 274 275 275 275 275 275 276 276 276 276 277 277 277 277 277 277 277 278 278 279 279 279 279 280 280 280 280 280 280 281 281 280 280 280 280 280 279 279 279 278 278 277 277 277 277 277 277 276 276 276 276 275 275 275 274 274 273 273 273 273 273 273 273 273 273 272 272 272 271 270 270 269
275 275 274 274 274 274 274 274 274 274 274 274 274 274 274 275 275 275 276 276 276 276 277 277 277 277 277 277 277 277 278 278 278 279 279 279 279 279 280 280 280 280 280 280 280 280 280 280 280 280 279 279 278 278 278 277 277 277 277 277 277 277 276 276 276 276 275 275 275 274 274 274 274 274 274 274 274 274 274 273 273 272 272 271 271 270
274 274 274 274 274 274 274 274 274 274 274 274 274 274 275 275 275 276 276 276 276 277 277 277 277 277 278 278 278 278 278 278 279 279 279 279 279 279 280 280 280 280 280 280 280 280 280 280 280 279 279 279 278 278 278 278 278 277 277 277 277 277 277 277 276 276 276 275 275 275 275 275 275 275 275 275 275 275 275 274 274 273 273 272 272 271
274 274 274 274 274 274 274 274 274 274 274 274 274 275 275 275 276 276 276 276 277 277 277 277 278 278 278 278 278 278 278 278 279 279 279 279 279 279 279 280 280 280 280 280 280 280 280 280 280 279 279 279 278 278 278 278 278 278 278 277 277 277 277 277 277 276 276 276 276 276 276 276 276 276 276 276 276 276 276 275 275 274 274 273 273 273
274 274 274 274 274 274 274 274 274 274 274 274 274 275 275 275 276 276 276 276 277 277 277 278 278 278 278 278 278 278 278 279 279 279 279 279 279 279 279 280 280 280 280 280 280 280 280 280 280 279 279 279 279 278 278 278 278 278 278 278 278 278 277 277 277 277 277 277 277 277 277 277 277 278 277 277 277 277 276 276 276 275 275 275 274 274
273 273 273 273 273 273 274 274 273 274 274 274 274 275 275 276 276 276 276 276 277 277 277 278 278 278 278 278 278 278 278 278 278 278 278 278 279 279 279 280 280 280 280 280 280 280 280 280 279 279 279 279 279 278 278 278 278 278 278 278 278 278 278 278 278 277 277 277 278 278 278 278 279 279 279 278 278 278 278 277 277 277 276 276 276 276
273 273 273 273 273 273 273 273 273 273 274 274 274 275 275 275 276 276 276 276 277 277 277 277 277 278 278 278 278 278 278 278 278 278 278 278 279 279 279 279 279 280 280 279 279 279 279 280 279 279 279 279 279 279 278 278 278 278 278 278 278 278 278 278 278 278 278 278 279 279 279 279 280 280 280 280 279 279 279 278 278 278 278 278 278 278
272 272 272 272 273 273 273 273 273 273 273 274 274 274 274 275 275 275 276 276 276 277 277 277 277 277 277 277 277 277 277 277 277 278 278 278 279 279 279 279 279 279 279 279 279 279 279 279 280 279 279 279 279 279 279 278 279 279 279 279 279 279 279 278 279 279 279 280 280 280 280 281 281 281 281 281 280 280 280 279 279 279 279 279 279 280
272 272 272 272 272 272 272 273 273 273 273 274 274 274 274 274 275 275 275 276 276 276 276 276 277 277 277 277 277 277 277 277 277 277 278 278 278 279 279 279 279 279 279 279 279 279 279 279 280 279 279 279 279 279 279 279 279 279 279 279 279 279 279 279 279 280 280 281 281 281 281 282 282 282 282 282 281 281 281 281 280 280 281 281 281 281
271 272 272 272 272 272 272 272 273 273 273 273 273 274 274 274 274 275 275 275 276 276 276 276 276 276 276 276 276 276 277 277 277 277 278 278 278 278 278 278 278 278 278 278 279 279 279 280 279 279 279 279 279 279 279 279 279 279 279 279 279 279 280 280 280 281 281 282 282 282 283 283 283 283 283 283 282 282 282 282 282 282 282 283 283 283
271 272 272 272 272 272 272 273 273 273 273 273 273 273 273 274 274 274 275 275 275 275 275 275 276 276 276 276 276 276 276 277 277 277 277 277 278 278 278 278 278 278 278 278 279 279 279 280 279 279 279 279 279 279 279 279 279 279 280 280 280 280 280 281 282 282 282 283 283 284 284 284 284 284 284 283 283 283 283 283 283 283 284 284 285 284
271 271 272 272 272 272 273 273 273 273 273 273 273 273 273 274 274 274 274 274 275 275 275 275 275 275 276 276 276 276 276 276 277 277 277 277 277 277 277 277 277 277 278 278 279 279 279 279 279 279 279 279 279 279 279 280 280 280 280 280 280 281 281 282 282 283 283 284 284 285 285 285 285 285 284 284 284 284 284 284 284 285 285 286 286 285
270 271 271 271 272 272 272 273 273 273 273 273 273 273 273 273 274 274 274 274 274 274 275 275 275 275 275 275 276 276 276 276 277 276 276 276 276 276 276 276 277 277 278 278 279 279 279 279 279 279 279 279 279 280 280 280 280 280 280 281 281 282 282 283 283 284 284 285 285 286 286 286 286 285 285 285 285 285 285 285 286 286 287 287 286 285
270 270 270 270 271 271 272 272 273 273 273 273 273 273 273 273 273 273 273 273 274 274 274 274 275 275 275 275 276 276 276 276 276 276 276 276 275 275 276 276 277 277 278 278 278 279 279 279 279 279 279 279 280 280 280 280 280 280 281 281 282 283 283 284 284 285 285 286 286 286 287 287 286 286 286 286 286 286 286 287 287 288 288 288 287 286
270 270 270 270 270 270 271 271 272 273 273 273 273 273 273 273 273 273 273 273 273 274 274 274 274 275 275 275 276 276 276 276 276 275 275 275 275 275 275 276 277 277 278 278 278 278 278 278 278 279 279 280 280 280 280 280 281 281 282 282 283 283 284 284 285 285 286 287 287 287 287 287 287 287 287 287 287 287 288 288 289 289 289 288 287 286
270 270 270 270 269 269 270 270 271 272 272 273 273 273 273 273 272 272 273 273 273 274 274 274 274 275 275 276 276 276 276 275 275 275 275 274 274 275 275 276 277 277 277 278 278 278 278 278 279 279 280 280 280 280 280 280 281 281 282 283 284 284 284 285 286 286 287 287 288 288 288 288 288 288 288 288 288 289 290 290 290 290 289 288 288 287
270 270 270 269 269 269 269 269 270 271 271 272 272 273 273 273 272 272 273 273 273 274 274 274 275 275 275 276 275 275 275 274 274 274 274 274 274 275 276 276 276 277 277 277 277 278 278 279 279 280 280 280 280 280 280 281 281 282 283 283 284 285 285 286 286 287 288 288 288 288 289 289 289 289 289 289 290 291 291 292 291 291 290 289 288 287
270 270 269 269 269 269 269 269 269 270 270 271 271 272 272 272 273 273 273 273 274 274 275 275 275 275 275 275 274 274 274 274 274 274 274 274 275 275 276 276 276 276 277 277 277 278 279 279 280 280 280 280 280 280 281 281 282 283 283 284 285 285 286 286 287 288 288 289 289 289 290 290 290 290 290 291 291 292 293 293 292 291 290 289 288 287
270 269 269 269 269 269 269 269 269 269 269 270 271 271 272 272 273 273 273 274 274 275 275 275 275 275 274 274 273 273 273 273 273 273 274 274 275 275 276 276 276 276 276 277 277 278 279 279 280 280 280 280 280 280 281 281 282 283 284 284 285 286 286 287 288 288 289 289 290 290 291 291 291 291 292 292 293 293 294 293 292 291 291 290 289 287
270 270 270 269 269 269 269 269 269 269 269 270 270 271 272 272 273 273 274 274 274 275 275 275 274 274 273 273 272 272 272 272 273 273 274 275 275 275 275 276 276 276 276 277 277 278 278 278 279 279 279 280 280 281 281 282 283 283 284 285 286 286 287 288 288 289 290 290 291 291 291 292 292 292 293 293 294 294 294 294 293 292 291 290 289 288
270 270 270 270 270 270 270 270 270 270 270 270 270 271 272 273 273 274 274 274 274 274 274 273 273 272 272 272 272 272 272 272 273 274 274 275 275 275 275 275 276 276 277 277 278 278 278 278 278 278 279 279 280 281 281 282 283 284 285 285 286 287 287 288 289 290 290 291 291 292 292 292 293 293 294 294 295 295 294 294 293 292 292 290 289 289
271 271 271 270 270 270 270 270 270 270 270 270 271 272 272 273 274 274 274 274 274 273 273 272 271 271 271 271 271 272 272 273 273 274 274 274 275 275 275 275 276 276 277 277 277 277 277 277 277 277 278 279 280 281 282 282 283 284 285 285 286 287 288 288 289 290 291 291 292 292 292 293 293 294 294 295 295 295 294 293 293 293 292 291 290 289
271 271 271 271 271 271 271 270 270 271 271 271 272 272 273 273 274 274 273 273 272 272 271 271 271 270 271 271 271 272 272 273 274 274 274 274 274 275 275 275 276 276 277 277 277 277 277 277 277 278 278 279 280 281 282 283 283 284 285 286 287 287 288 289 290 290 291 291 292 292 293 293 293 294 294 295 295 294 293 293 293 292 292 291 290 289
272 272 272 272 271 271 271 271 271 271 271 272 272 273 273 273 273 273 273 272 271 271 270 270 270 270 270 271 271 272 272 273 273 274 274 274 274 275 275 275 276 276 276 277 277 277 277 277 278 278 278 279 280 280 281 282 283 284 285 286 287 288 288 289 290 290 291 291 292 292 293 293 293 294 294 294 294 293 293 293 293 292 292 291 291 289
272 272 272 272 272 272 272 272 272 272 272 272 273 273 273 273 273 272 272 271 271 270 270 270 270 270 270 271 271 271 272 273 273 273 274 274 274 274 275 275 276 276 276 276 277 277 277 277 278 278 279 280 280 281 282 282 283 284 285 286 287 288 288 289 290 290 291 291 292 292 293 293 293 294 294 294 294 293 293 293 293 292 292 291 290 288
272 272 272 272 272 272 272 272 272 273 273 273 273 273 273 272 272 272 271 271 271 270 270 270 270 270 270 271 271 271 272 272 272 273 273 273 274 274 274 275 275 276 276 276 277 277 277 278 278 278 279 280 280 281 282 282 283 284 285 285 286 287 289 289 290 290 291 292 292 293 293 293 293 294 294 294 293 293 293 293 293 292 292 291 290 287
271 271 271 271 272 272 272 272 272 273 273 273 272 272 272 271 271 271 271 271 271 271 270 270 270 271 271 271 271 271 272 272 272 272 273 273 273 274 274 275 275 276 276 276 277 277 278 278 278 279 279 280 280 281 282 282 283 283 284 285 286 287 289 289 290 291 291 292 292 293 293 293 293 294 294 293 293 293 293 293 292 292 291 290 288 286
271 271 271 271 271 272 272 272 272 272 272 272 272 271 271 271 271 271 271 271 271 270 270 270 271 271 271 271 272 271 271 271 272 272 272 273 273 274 274 275 275 276 276 276 277 277 278 278 278 279 279 280 280 281 281 282 282 283 284 285 286 287 288 289 290 291 291 292 292 293 293 293 293 293 293 293 293 293 292 292 292 291 290 288 286 283
271 271 271 271 271 271 271 271 271 271 271 271 271 271 271 271 271 270 270 270 270 270 270 271 271 271 272 272 272 271 271 271 271 272 272 273 273 274 274 275 275 276 276 277 277 277 278 278 278 279 279 279 280 280 280 281 282 283 284 285 286 287 288 288 289 290 291 292 292 292 292 293 293 293 293 293 293 292 292 291 291 290 289 287 284 281
271 271 271 271 271 271 271 271 271 271 271 271 271 271 271 270 270 270 270 270 270 270 270 271 271 272 272 272 272 271 271 271 271 272 272 273 273 274 274 275 275 276 276 277 277 277 278 278 278 278 279 279 279 279 279 280 281 283 284 285 286 287 287 288 289 291 291 292 292 292 292 292 292 293 293 293 292 291 291 290 290 289 287 284 281 279
272 271 271 271 271 271 270 270 270 270 271 271 271 270 270 270 270 269 269 269 269 270 270 271 271 272 271 271 271 271 271 271 271 272 272 273 273 274 274 275 275 275 276 276 277 277 277 278 278 278 278 278 278 278 279 280 281 283 284 285 286 287 288 289 290 291 291 292 291 291 291 292 292 292 292 292 291 290 290 289 289 287 284 282 278 276
272 271 271 271 271 270 270 270 270 270 270 270 270 270 270 269 269 269 269 269 269 270 270 271 271 271 271 271 271 271 271 271 271 272 272 272 273 273 274 274 275 275 276 276 276 277 277 277 277 278 278 278 278 278 279 280 281 283 284 285 286 287 288 289 290 291 291 291 291 290 290 291 291 292 292 291 290 289 288 288 287 285 282 279 275 273
271 271 271 271 271 270 270 270 270 270 270 270 270 269 269 269 269 269 269 269 269 270 270 270 270 270 270 270 270 270 271 271 271 272 272 272 273 273 273 274 274 275 275 276 276 276 276 277 277 277 277 277 277 278 279 281 282 283 284 285 286 288 289 290 290 291 291 290 290 289 289 290 291 291 291 290 289 288 287 286 285 282 279 276 272 269
271 271 271 271 270 270 270 270 270 270 270 269 269 269 269 269 269 269 269 269 269 270 270 270 270 270 269 269 270 270 270 271 271 272 272 272 273 273 273 274 274 274 275 275 275 276 276 276 276 276 276 277 277 278 280 281 282 283 284 285 287 288 289 290 291 291 291 290 289 289 289 290 291 291 290 289 287 286 285 284 282 279 275 272 268 265
271 271 271 271 270 270 270 270 269 269 269 269 269 269 269 269 269 269 269 269 269 269 269 269 269 269 269 269 269 269 270 270 271 271 272 272 273 273 273 274 274 274 274 275 275 275 275 275 275 276 276 277 278 279 280 281 283 284 285 286 287 288 289 290 291 291 290 289 288 288 288 289 290 290 289 287 286 284 284 282 279 275 271 267 264 260
271 271 271 271 270 270 270 270 269 269 269 269 269 269 269 269 269 269 269 269 269 269 269 269 269 268 268 268 269 269 269 270 270 271 271 272 273 273 273 274 274 274 274 274 274 274 274 275 275 275 276 277 278 279 280 282 283 284 285 286 287 289 290 290 290 290 289 287 287 287 287 288 289 288 286 284 283 282 281 279 275 271 267 263 259 254
272 271 271 271 270 270 270 269 269 269 269 269 269 269 269 269 269 269 269 269 269 269 268 268 268 268 268 268 268 268 269 269 270 271 271 272 273 273 274 274 274 274 274 274 274 274 274 274 275 275 276 277 278 279 281 282 283 284 285 287 288 289 290 290 290 289 287 286 285 286 287 288 288 286 284 282 280 279 277 275 271 266 262 257 253 249
Height
10352 10350 10350 10348 10347 10345 10342 10340 10338 10337 10335 10333 10333 10333 10334 10336 10337 10337 10337 10335 10335 10334 10333 10333 10332 10330 10328 10327 10326 10325 10324 10324 10324 10324 10324 10324 10323 10322 10320 10319 10318 10317 10315 10315 10313 10313 10312 10311 10310 10309 10308 10307 10306 10305 10305 10305 10305 10304 10303 10303 10303 10303 10302 10302 10302 10302 10301 10300 10300 10299 10298 10298 10298 10297 10297 10297 10297 10297 10297 10297 10297 10297 10297 10298 10298 10298
10343 10343 10342 10340 10339 10337 10334 10332 10331 10330 10328 10326 10325 10325 10326 10327 10328 10328 10328 10327 10327 10326 10325 10325 10323 10322 10320 10319 10318 10317 10316 10316 10316 10316 10316 10316 10315 10313 10312 10311 10310 10308 10308 10307 10306 10305 10304 10303 10302 10301 10300 10299 10298 10297 10297 10297 10297 10296 10295 10295 10295 10295 10295 10294 10294 10294 10293 10293 10292 10292 10291 10290 10290 10290 10289 10289 10288 10288 10288 10288 10288 10288 10289 10289 10289 10290
10335 10334 10333 10332 10331 10330 10327 10325 10323 10322 10321 10319 10318 10317 10318 10318 10318 10318 10319 10318 10318 10318 10318 10317 10316 10314 10312 10311 10310 10309 10308 10308 10308 10308 10308 10307 10307 10305 10303 10302 10301 10300 10299 10298 10298 10297 10296 10295 10294 10293 10292 10291 10290 10290 10289 10288 10288 10288 10287 10287 10287 10287 10287 10287 10286 10286 10285 10285 10284 10283 10283 10283 10282 10282 10282 10281 10280 10280 10280 10280 10280 10280 10280 10280 10280 10280
10327 10326 10324 10323 10323 10322 10319 10317 10315 10314 10313 10312 10311 10310 10310 10310 10310 10309 10310 10310 10310 10310 10309 10308 10307 10306 10304 10303 10302 10301 10300 10300 10300 10300 10300 10299 10298 10296 10295 10293 10292 10292 10291 10290 10290 10289 10288 10287 10286 10285 10283 10283 10282 10281 10280 10280 10280 10279 10279 10278 10278 10278 10278 10278 10278 10277 10277 10277 10276 10275 10275 10275 10274 10273 10273 10272 10272 10272 10271 10271 10271 10271 10272 10272 10272 10272
10318 10317 10316 10315 10315 10313 10311 10309 10308 10306 10305 10304 10303 10302 10302 10302 10301 10301 10300 10301 10301 10300 10300 10300 10299 10298 10296 10295 10293 10293 10292 10292 10292 10292 10292 10290 10289 10287 10286 10285 10283 10283 10282 10282 10281 10280 10280 10278 10277 10276 10275 10274 10273 10273 10272 10272 10271 10271 10270 10270 10270 10270 10270 10270 10270 10269 10269 10268 10268 10267 10267 10266 10265 10265 10264 10263 10263 10263 10262 10262 10262 10262 10262 10262 10262 10262
10310 10309 10308 10308 10307 10305 10303 10302 10300 10298 10297 10296 10295 10295 10294 10293 10293 10292 10292 10292 10292 10292 10291 10290 10290 10289 10288 10287 10285 10285 10285 10284 10284 10283 10283 10282 10280 10279 10277 10276 10275 10274 10273 10273 10273 10272 10272 10270 10269 10268 10267 10266 10265 10264 10263 10263 10263 10262 10262 10262 10262 10262 10262 10261 10261 10261 10260 10260 10260 10259 10258 10258 10257 10257 10255 10255 10254 10253 10253 10253 10253 10253 10253 10253 10253 10253
10302 10301 10300 10300 10298 10297 10295 10293 10292 10290 10289 10287 10287 10286 10286 10285 10285 10284 10283 10283 10283 10283 10282 10282 10281 10280 10279 10278 10278 10277 10277 10276 10276 10275 10274 10273 10272 10270 10269 10268 10267 10266 10265 10265 10264 10263 10263 10262 10260 10259 10258 10257 10257 10256 10255 10255 10254 10253 10253 10253 10253 10253 10253 10253 10253 10252 10252 10252 10251 10250 10250 10249 10248 10248 10247 10246 10245 10245 10244 10244 10244 10243 10243 10243 10243 10243
10293 10292 10292 10291 10290 10288 10287 10285 10283 10282 10281 10280 10278 10277 10277 10277 10277 10276 10275 10275 10275 10274 10274 10273 10272 10272 10271 10270 10270 10269 10268 10268 10267 10267 10265 10265 10263 10262 10261 10260 10258 10257 10257 10257 10256 10255 10254 10253 10252 10251 10250 10249 10248 10247 10247 10246 10245 10245 10245 10245 10245 10245 10245 10244 10244 10244 10243 10243 10242 10242 10241 10240 10240 10239 10238 10237 10236 10235 10235 10235 10235 10234 10234 10234 10234 10233
10286 10284 10283 10282 10282 10281 10279 10277 10275 10274 10273 10272 10270 10270 10268 10268 10267 10267 10267 10267 10266 10266 10266 10265 10264 10263 10262 10262 10262 10261 10260 10260 10259 10258 10257 10256 10255 10253 10252 10251 10250 10249 10248 10248 10247 10247 10245 10244 10243 10242 10241 10240 10240 10239 10238 10237 10236 10236 10236 10236 10236 10236 10236 10236 10236 10235 10235 10235 10234 10233 10232 10231 10231 10230 10229 10228 10227 10226 10226 10226 10225 10225 10225 10225 10224 10224
10277 10276 10275 10273 10273 10273 10272 10268 10267 10265 10265 10264 10263 10262 10261 10260 10259 10258 10258 10258 10258 10258 10258 10258 10257 10255 10254 10253 10253 10253 10253 10252 10252 10250 10249 10248 10247 10245 10244 10243 10242 10242 10241 10240 10239 10238 10237 10236 10235 10233 10233 10232 10231 10230 10230 10229 10228 10228 10227 10227 10227 10227 10227 10227 10227 10226 10226 10226 10225 10225 10223 10223 10222 10221 10220 10219 10218 10218 10217 10216 10216 10216 10215 10215 10215 10214
10268 10268 10267 10266 10265 10264 10263 10261 10258 10257 10257 10256 10254 10253 10252 10252 10251 10250 10250 10250 10250 10250 10250 10249 10249 10248 10247 10245 10245 10245 10245 10244 10243 10242 10242 10240 10239 10238 10236 10235 10234 10233 10233 10231 10231 10230 10228 10227 10226 10225 10225 10223 10223 10222 10221 10220 10220 10219 10219 10219 10219 10219 10219 10219 10218 10218 10218 10217 10216 10216 10215 10214 10213 10212 10211 10210 10210 10209 10208 10208 10207 10206 10206 10205 10205 10204
10260 10259 10258 10257 10257 10255 10254 10252 10250 10249 10248 10248 10246 10244 10243 10242 10243 10243 10243 10242 10242 10242 10241 10240 10241 10240 10240 10238 10237 10236 10236 10236 10235 10233 10233 10232 10231 10230 10228 10227 10226 10226 10225 10223 10222 10221 10220 10219 10218 10217 10216 10215 10214 10213 10213 10211 10211 10211 10211 10210 10210 10210 10210 10210 10210 10210 10209 10208 10208 10207 10206 10205 10204 10203 10202 10201 10201 10200 10199 10198 10198 10196 10196 10195 10195 10194
10251 10250 10250 10249 10248 10247 10246 10244 10242 10241 10240 10239 10238 10236 10234 10233 10234 10236 10236 10235 10234 10233 10233 10232 10232 10232 10231 10231 10230 10229 10228 10228 10226 10226 10225 10224 10222 10221 10220 10219 10218 10217 10216 10215 10214 10213 10211 10211 10210 10209 10208 10207 10206 10205 10204 10203 10203 10203 10202 10202 10202 10202 10202 10201 10201 10201 10201 10200 10199 10198 10197 10196 10195 10194 10193 10193 10191 10191 10190 10189 10188 10187 10186 10185 10185 10183
10242 10242 10242 10241 10240 10238 10237 10236 10234 10233 10231 10230 10229 10227 10226 10225 10226 10228 10228 10226 10225 10225 10225 10225 10224 10223 10223 10223 10222 10221 10220 10219 10218 10218 10217 10216 10214 10213 10212 10211 10210 10209 10208 10207 10205 10204 10203 10203 10201 10200 10200 10198 10198 10196 10196 10195 10195 10194 10194 10194 10194 10194 10193 10193 10193 10193 10192 10191 10191 10190 10188 10187 10186 10185 10185 10184 10183 10181 10181 10180 10178 10177 10176 10175 10174 10173
10233 10233 10233 10232 10231 10230 10228 10227 10226 10224 10222 10221 10220 10219 10218 10218 10219 10220 10220 10218 10217 10217 10218 10217 10216 10215 10215 10214 10213 10213 10212 10211 10211 10210 10209 10207 10206 10205 10204 10203 10201 10201 10200 10199 10197 10195 10195 10195 10193 10192 10191 10190 10189 10188 10188 10186 10186 10186 10186 10186 10186 10185 10185 10185 10185 10184 10183 10183 10182 10181 10180 10179 10178 10177 10176 10175 10174 10173 10171 10170 10169 10168 10166 10165 10163 10162
10225 10225 10225 10223 10221 10221 10219 10218 10217 10215 10213 10212 10211 10211 10211 10211 10211 10211 10212 10211 10210 10209 10210 10209 10208 10207 10206 10205 10205 10205 10205 10204 10203 10203 10201 10199 10196 10196 10196 10195 10194 10192 10192 10191 10189 10188 10186 10186 10185 10184 10183 10182 10181 10180 10180 10178 10178 10178 10178 10178 10177 10177 10176 10176 10176 10175 10175 10174 10173 10172 10171 10170 10170 10168 10168 10166 10165 10163 10162 10160 10159 10157 10155 10154 10153 10151
10216 10216 10216 10215 10213 10211 10210 10209 10208 10207 10205 10204 10203 10203 10203 10203 10203 10203 10204 10203 10202 10201 10201 10201 10201 10200 10197 10196 10195 10196 10197 10196 10196 10195 10194 10191 10188 10187 10188 10188 10186 10185 10183 10183 10181 10180 10178 10178 10177 10176 10175 10174 10173 10172 10171 10170 10170 10170 10170 10170 10169 10168 10168 10168 10167 10166 10166 10165 10165 10164 10163 10162 10161 10160 10159 10158 10156 10155 10153 10151 10149 10147 10145 10143 10142 10141
10208 10207 10206 10206 10204 10203 10201 10200 10200 10198 10197 10196 10195 10195 10195 10196 10196 10196 10195 10195 10194 10194 10193 10193 10193 10192 10191 10188 10186 10186 10188 10190 10188 10187 10186 10183 10180 10178 10179 10180 10179 10177 10176 10175 10173 10171 10171 10170 10169 10168 10167 10166 10165 10164 10163 10163 10162 10161 10161 10161 10160 10160 10159 10159 10158 10158 10158 10157 10156 10155 10155 10154 10153 10151 10150 10148 10147 10145 10143 10141 10139 10137 10135 10133 10131 10130
10198 10198 10198 10196 10195 10194 10193 10191 10190 10190 10188 10187 10187 10187 10188 10188 10188 10188 10188 10186 10186 10186 10185 10185 10185 10184 10183 10181 10178 10177 10180 10182 10181 10179 10178 10176 10173 10171 10171 10171 10171 10170 10168 10166 10165 10164 10163 10163 10161 10161 10160 10158 10157 10156 10155 10155 10154 10153 10153 10152 10152 10151 10151 10150 10150 10149 10149 10148 10148 10147 10146 10145 10144 10143 10141 10140 10138 10135 10133 10131 10128 10126 10125 10123 10121 10120
10190 10189 10188 10188 10186 10185 10184 10183 10181 10181 10180 10180 10180 10181 10180 10180 10180 10180 10179 10178 10178 10178 10178 10178 10177 10176 10175 10173 10171 10170 10171 10173 10173 10171 10170 10168 10166 10164 10163 10164 10163 10161 10160 10158 10157 10156 10156 10155 10154 10153 10152 10150 10149 10148 10147 10146 10146 10145 10145 10144 10143 10143 10142 10141 10141 10140 10140 10140 10140 10139 10138 10137 10136 10134 10132 10130 10128 10125 10123 10121 10118 10116 10115 10113 10111 10110
10181 10180 10179 10179 10178 10177 10175 10173 10173 10173 10172 10173 10173 10173 10172 10172 10172 10171 10171 10171 10171 10171 10171 10171 10170 10168 10167 10166 10164 10163 10163 10165 10165 10163 10162 10161 10159 10156 10156 10156 10155 10154 10153 10151 10150 10149 10148 10148 10147 10146 10144 10142 10141 10140 10139 10138 10138 10137 10136 10136 10135 10134 10133 10133 10132 10132 10132 10132 10131 10131 10130 10129 10127 10125 10123 10121 10118 10116 10113 10111 10108 10107 10105 10104 10102 10101
10173 10171 10170 10170 10170 10169 10166 10165 10164 10164 10165 10165 10166 10165 10165 10165 10164 10163 10163 10163 10163 10163 10163 10163 10161 10161 10160 10159 10156 10155 10156 10156 10156 10155 10155 10154 10151 10149 10148 10148 10148 10146 10145 10143 10142 10141 10141 10141 10140 10138 10136 10135 10133 10132 10131 10131 10130 10129 10128 10127 10126 10125 10125 10124 10124 10124 10124 10124 10123 10123 10122 10121 10119 10116 10114 10111 10108 10106 10103 10101 10099 10098 10096 10095 10093 10091
10165 10163 10162 10162 10161 10160 10159 10157 10156 10156 10157 10158 10158 10157 10156 10157 10156 10156 10155 10156 10156 10155 10155 10155 10154 10153 10153 10151 10149 10148 10148 10148 10148 10148 10148 10148 10144 10141 10140 10140 10140 10139 10138 10136 10135 10135 10135 10134 10133 10131 10129 10127 10126 10125 10123 10123 10122 10121 10120 10119 10118 10117 10116 10116 10116 10116 10115 10115 10115 10115 10113 10112 10110 10108 10105 10102 10099 10096 10094 10091 10090 10088 10087 10086 10085 10082
10156 10155 10154 10153 10153 10152 10151 10149 10148 10148 10149 10150 10150 10150 10149 10149 10149 10148 10148 10148 10148 10148 10147 10147 10146 10146 10145 10144 10142 10140 10140 10140 10141 10141 10141 10140 10138 10135 10133 10133 10132 10131 10130 10129 10129 10128 10128 10127 10126 10124 10121 10120 10118 10116 10116 10115 10115 10113 10112 10111 10110 10109 10108 10108 10108 10108 10107 10107 10106 10106 10105 10103 10101 10099 10096 10093 10090 10087 10085 10083 10081 10080 10079 10078 10075 10073
10149 10148 10146 10145 10145 10143 10143 10141 10140 10140 10141 10141 10142 10142 10141 10141 10141 10141 10141 10141 10141 10140 10140 10140 10140 10138 10137 10136 10135 10133 10131 10133 10134 10135 10135 10133 10131 10128 10126 10125 10125 10124 10123 10123 10123 10123 10121 10120 10118 10116 10114 10112 10110 10109 10108 10108 10106 10105 10104 10103 10101 10101 10101 10100 10100 10100 10099 10099 10098 10098 10096 10095 10092 10090 10087 10084 10081 10078 10076 10075 10073 10071 10071 10069 10067 10063
10142 10141 10140 10138 10137 10136 10135 10133 10132 10131 10132 10133 10134 10135 10135 10135 10134 10134 10134 10133 10133 10133 10133 10133 10132 10131 10130 10130 10128 10126 10125 10125 10126 10128 10127 10126 10124 10121 10119 10118 10118 10117 10116 10116 10116 10116 10115 10113 10111 10109 10106 10105 10103 10102 10101 10100 10098 10097 10096 10095 10094 10093 10093 10093 10092 10091 10091 10091 10090 10089 10088 10086 10083 10081 10078 10075 10073 10070 10068 10066 10065 10063 10062 10060 10058 10054
10136 10135 10133 10132 10130 10128 10126 10125 10123 10123 10123 10124 10125 10126 10127 10128 10128 10127 10126 10125 10125 10125 10126 10125 10125 10124 10123 10122 10121 10119 10118 10118 10119 10120 10120 10119 10117 10114 10111 10111 10111 10111 10110 10110 10110 10110 10109 10106 10104 10101 10100 10097 10096 10095 10093 10092 10091 10090 10088 10088 10086 10086 10086 10085 10085 10084 10083 10083 10082 10081 10079 10077 10075 10072 10069 10066 10064 10061 10059 10058 10056 10055 10054 10051 10048 10045
10128 10128 10128 10126 10124 10122 10120 10118 10116 10115 10115 10115 10116 10118 10120 10121 10121 10120 10117 10117 10118 10118 10118 10118 10118 10117 10116 10115 10113 10113 10112 10111 10111 10111 10111 10112 10110 10107 10105 10105 10105 10105 10105 10105 10104 10104 10103 10100 10097 10095 10093 10091 10089 10088 10086 10085 10083 10081 10081 10080 10079 10078 10078 10078 10077 10076 10076 10075 10074 10073 10071 10068 10066 10063 10061 10058 10055 10053 10051 10049 10048 10046 10045 10043 10039 10036
10119 10120 10120 10120 10118 10116 10115 10112 10110 10108 10106 10106 10107 10109 10111 10113 10113 10111 10110 10110 10111 10111 10111 10111 10111 10110 10109 10108 10107 10106 10106 10104 10103 10103 10104 10104 10102 10100 10100 10099 10098 10099 10100 10098 10098 10097 10096 10093 10091 10089 10086 10085 10083 10080 10078 10076 10075 10074 10073 10073 10072 10071 10071 10070 10070 10069 10068 10068 10066 10065 10063 10060 10058 10055 10052 10050 10046 10045 10043 10041 10039 10038 10036 10033 10031 10028
10110 10110 10111 10111 10111 10111 10109 10106 10105 10102 10100 10099 10099 10100 10103 10105 10105 10104 10103 10103 10104 10105 10104 10104 10104 10104 10103 10102 10101 10100 10098 10096 10095 10095 10096 10096 10095 10093 10094 10093 10093 10093 10093 10093 10092 10091 10089 10087 10085 10083 10080 10078 10076 10073 10071 10069 10068 10067 10067 10066 10065 10065 10063 10063 10062 10061 10061 10060 10058 10057 10055 10053 10050 10047 10044 10041 10038 10036 10034 10033 10031 10029 10027 10025 10023 10021
10102 10102 10102 10102 10102 10103 10102 10101 10100 10097 10095 10093 10092 10092 10094 10096 10096 10096 10096 10096 10096 10097 10098 10098 10098 10097 10097 10096 10095 10093 10090 10088 10087 10088 10090 10090 10088 10088 10088 10088 10086 10086 10087 10087 10086 10085 10083 10081 10078 10076 10074 10071 10069 10066 10064 10062 10061 10061 10060 10060 10058 10057 10056 10055 10055 10055 10054 10053 10051 10049 10047 10045 10041 10039 10036 10033 10030 10028 10026 10024 10022 10020 10019 10018 10016 10014
10094 10094 10094 10094 10094 10094 10094 10094 10093 10091 10090 10087 10086 10085 10086 10088 10089 10090 10090 10090 10090 10091 10091 10091 10091 10091 10090 10090 10088 10085 10082 10080 10080 10081 10083 10083 10082 10082 10083 10082 10080 10080 10081 10081 10081 10080 10078 10075 10072 10070 10067 10065 10062 10060 10058 10056 10055 10055 10054 10053 10052 10050 10049 10048 10048 10047 10046 10045 10043 10041 10039 10036 10033 10030 10028 10025 10022 10020 10018 10016 10014 10012 10011 10010 10009 10008
10086 10086 10086 10086 10086 10086 10086 10086 10085 10085 10083 10082 10080 10080 10080 10081 10083 10083 10083 10084 10084 10085 10085 10085 10085 10084 10083 10081 10080 10078 10076 10074 10073 10074 10076 10076 10076 10076 10076 10076 10075 10074 10074 10075 10075 10075 10073 10070 10067 10064 10061 10058 10055 10053 10051 10050 10049 10048 10048 10047 10045 10044 10043 10041 10041 10040 10039 10038 10036 10034 10031 10028 10026 10023 10020 10017 10015 10013 10011 10008 10006 10005 10004 10003 10002 10001
10078 10078 10079 10079 10079 10078 10078 10078 10078 10077 10076 10076 10075 10074 10073 10075 10076 10078 10078 10078 10079 10079 10079 10078 10078 10076 10075 10074 10073 10071 10069 10068 10067 10068 10070 10071 10070 10070 10070 10070 10069 10068 10068 10068 10068 10068 10068 10065 10063 10059 10055 10052 10049 10046 10045 10043 10043 10042 10042 10041 10040 10038 10036 10035 10034 10033 10032 10031 10029 10026 10024 10021 10018 10015 10012 10010 10008 10006 10003 10001 10000 9998 9998 9996 9995 9994
10071 10071 10071 10071 10071 10071 10071 10071 10070 10070 10070 10069 10068 10068 10068 10069 10070 10071 10072 10073 10073 10073 10073 10071 10071 10070 10068 10067 10066 10064 10062 10061 10061 10063 10064 10065 10065 10064 10063 10063 10063 10063 10063 10063 10063 10063 10061 10060 10058 10055 10051 10047 10043 10041 10039 10038 10036 10036 10036 10035 10033 10032 10030 10029 10028 10026 10025 10024 10022 10020 10017 10015 10011 10008 10005 10003 10001 9999 9997 9995 9993 9992 9991 9990 9989 9988
10064 10064 10064 10065 10065 10065 10064 10063 10063 10063 10063 10062 10062 10062 10063 10063 10064 10065 10066 10066 10067 10066 10066 10065 10063 10063 10061 10060 10059 10058 10056 10056 10056 10057 10058 10058 10058 10058 10057 10056 10056 10057 10057 10056 10056 10056 10055 10053 10051 10049 10046 10043 10039 10036 10033 10032 10031 10030 10030 10028 10028 10026 10025 10023 10021 10020 10019 10017 10015 10013 10011 10008 10005 10002 10000 9998 9996 9993 9991 9989 9988 9986 9986 9985 9983 9983
10057 10056 10057 10057 10057 10057 10057 10056 10056 10056 10056 10056 10056 10056 10057 10058 10058 10059 10059 10060 10060 10060 10059 10058 10057 10056 10055 10055 10053 10052 10051 10050 10050 10051 10051 10052 10052 10052 10051 10051 10051 10051 10051 10051 10050 10050 10049 10047 10045 10043 10040 10038 10035 10031 10029 10027 10026 10025 10023 10023 10022 10021 10019 10017 10016 10015 10013 10011 10010 10008 10005 10002 9999 9996 9995 9993 9991 9988 9986 9984 9983 9981 9980 9979 9978 9977
10050 10050 10050 10050 10050 10050 10050 10050 10050 10050 10050 10050 10050 10051 10051 10051 10051 10052 10052 10052 10052 10052 10051 10051 10051 10050 10050 10049 10048 10047 10046 10046 10045 10045 10045 10045 10046 10046 10046 10045 10045 10045 10045 10045 10044 10043 10043 10041 10039 10036 10034 10031 10030 10028 10025 10023 10021 10020 10018 10017 10016 10015 10013 10011 10010 10008 10007 10005 10004 10002 9999 9996 9993 9991 9990 9988 9985 9983 9981 9979 9978 9976 9975 9975 9973 9973
10044 10044 10043 10043 10043 10043 10043 10043 10043 10043 10043 10044 10044 10045 10045 10045 10045 10045 10045 10045 10045 10045 10045 10045 10045 10044 10044 10043 10043 10042 10041 10040 10039 10038 10039 10040 10040 10040 10040 10040 10040 10039 10039 10039 10038 10038 10036 10035 10033 10031 10028 10026 10024 10022 10020 10018 10016 10015 10013 10013 10011 10010 10008 10006 10004 10003 10001 10000 9998 9996 9993 9991 9988 9986 9984 9982 9980 9978 9976 9975 9973 9972 9970 9970 9969 9968
10038 10038 10038 10037 10037 10037 10036 10036 10036 10036 10037 10037 10038 10038 10038 10038 10038 10038 10038 10038 10038 10038 10038 10038 10038 10038 10038 10038 10037 10036 10035 10035 10033 10033 10033 10033 10034 10035 10035 10035 10034 10033 10033 10033 10033 10031 10030 10028 10026 10025 10023 10021 10019 10017 10015 10013 10011 10010 10010 10008 10007 10005 10003 10001 9998 9996 9995 9994 9992 9990 9987 9985 9983 9981 9979 9977 9975 9973 9971 9970 9969 9968 9966 9965 9964 9963
10032 10031 10031 10031 10031 10031 10031 10030 10030 10031 10031 10031 10031 10031 10032 10032 10031 10031 10031 10032 10032 10032 10032 10032 10032 10032 10032 10031 10031 10030 10030 10028 10028 10028 10028 10028 10028 10028 10029 10029 10028 10028 10028 10027 10026 10026 10025 10023 10021 10019 10018 10016 10014 10012 10010 10008 10006 10005 10005 10004 10003 10001 9999 9996 9993 9991 9990 9988 9986 9984 9981 9980 9978 9976 9974 9972 9970 9968 9966 9965 9965 9963 9963 9962 9961 9959
10026 10026 10026 10026 10026 10026 10025 10025 10025 10025 10025 10025 10025 10025 10025 10026 10026 10026 10026 10026 10026 10026 10026 10026 10026 10026 10026 10025 10025 10024 10023 10023 10022 10021 10022 10022 10022 10023 10023 10023 10023 10023 10023 10022 10021 10020 10018 10017 10015 10013 10012 10011 10009 10008 10005 10003 10001 10000 10000 10000 9999 9997 9995 9992 9989 9986 9985 9982 9980 9978 9976 9974 9973 9971 9970 9967 9965 9963 9962 9961 9960 9960 9959 9958 9957 9955
10021 10020 10020 10020 10020 10020 10020 10020 10020 10019 10019 10019 10019 10019 10020 10020 10020 10020 10020 10020 10020 10020 10020 10020 10021 10020 10020 10019 10018 10018 10017 10016 10016 10016 10016 10016 10016 10017 10017 10017 10017 10017 10017 10016 10015 10014 10013 10011 10010 10008 10006 10005 10005 10003 10000 9998 9996 9996 9995 9995 9995 9993 9991 9988 9985 9983 9980 9977 9975 9972 9971 9970 9968 9967 9965 9962 9960 9958 9958 9957 9957 9956 9956 9955 9953 9952
10015 10015 10015 10015 10015 10015 10015 10014 10013 10013 10013 10013 10013 10013 10014 10015 10015 10015 10015 10014 10014 10014 10015 10015 10015 10015 10014 10013 10011 10011 10010 10010 10011 10011 10011 10011 10011 10011 10011 10011 10011 10012 10011 10011 10010 10008 10007 10005 10004 10002 10001 10000 9999 9997 9995 9993 9992 9991 9991 9991 9990 9989 9986 9983 9981 9978 9975 9972 9970 9967 9965 9965 9964 9963 9961 9958 9956 9955 9954 9953 9953 9953 9952 9951 9950 9948
10010 10010 10009 10009 10009 10009 10009 10008 10008 10008 10008 10008 10008 10008 10008 10009 10010 10010 10009 10008 10008 10009 10009 10010 10010 10009 10008 10006 10006 10005 10005 10005 10005 10005 10005 10005 10006 10006 10006 10006 10006 10006 10006 10006 10005 10003 10001 10000 9998 9997 9996 9995 9994 9992 9990 9989 9988 9988 9987 9986 9985 9984 9981 9980 9977 9974 9971 9968 9965 9963 9961 9960 9960 9958 9956 9954 9952 9950 9950 9950 9950 9950 9949 9948 9946 9945
10005 10004 10003 10003 10003 10003 10003 10003 10003 10003 10003 10002 10002 10003 10003 10003 10004 10004 10003 10003 10003 10003 10004 10004 10004 10003 10002 10001 10000 10000 9999 9999 9999 10000 10000 10000 10000 10001 10001 10001 10001 10001 10001 10000 10000 9998 9996 9995 9993 9992 9991 9990 9988 9986 9985 9985 9984 9983 9983 9982 9980 9978 9976 9975 9972 9970 9966 9963 9961 9958 9956 9956 9955 9954 9953 9950 9948 9946 9946 9947 9947 9946 9945 9944 9943 9942
10000 9998 9998 9998 9998 9998 9998 9998 9998 9998 9997 9997 9997 9997 9998 9998 9998 9998 9998 9998 9998 9998 9998 9999 9998 9998 9996 9995 9995 9995 9994 9993 9993 9994 9994 9995 9995 9995 9996 9996 9996 9996 9996 9995 9994 9993 9991 9990 9988 9987 9985 9984 9982 9981 9980 9980 9980 9980 9978 9978 9976 9974 9972 9970 9967 9965 9961 9959 9956 9954 9953 9952 9951 9950 9949 9946 9945 9943 9943 9944 9944 9943 9942 9941 9940 9939
9994 9993 9993 9993 9993 9992 9992 9992 9992 9992 9992 9991 9992 9992 9993 9993 9993 9993 9993 9993 9993 9994 9993 9993 9993 9992 9991 9990 9990 9990 9989 9988 9988 9988 9988 9989 9990 9990 9990 9991 9991 9991 9991 9990 9989 9988 9986 9985 9983 9981 9980 9978 9977 9976 9975 9975 9975 9975 9974 9973 9971 9970 9968 9965 9962 9960 9956 9953 9951 9950 9949 9948 9948 9946 9945 9943 9941 9940 9940 9941 9941 9940 9939 9938 9937 9936
9988 9988 9988 9987 9987 9987 9987 9987 9987 9987 9986 9986 9987 9987 9987 9988 9988 9988 9988 9988 9989 9989 9988 9988 9988 9987 9986 9985 9985 9984 9984 9983 9983 9983 9983 9983 9984 9985 9985 9985 9986 9986 9985 9985 9985 9983 9982 9980 9978 9976 9975 9973 9971 9971 9971 9971 9971 9970 9970 9968 9967 9965 9963 9961 9958 9955 9951 9948 9946 9945 9945 9945 9944 9943 9941 9940 9938 9937 9937 9938 9937 9936 9936 9935 9934 9933
9983 9983 9982 9982 9982 9981 9981 9981 9981 9981 9981 9981 9982 9982 9983 9983 9983 9983 9983 9983 9984 9983 9983 9983 9982 9981 9981 9980 9980 9979 9979 9978 9978 9978 9978 9978 9978 9979 9980 9980 9980 9980 9980 9980 9980 9978 9977 9975 9973 9971 9970 9968 9966 9966 9966 9966 9966 9965 9965 9963 9963 9961 9959 9956 9953 9950 9946 9943 9941 9941 9941 9941 9940 9940 9938 9936 9935 9935 9935 9935 9935 9933 9933 9932 9931 9931
9978 9977 9977 9977 9976 9976 9976 9976 9976 9976 9976 9976 9977 9977 9978 9978 9978 9978 9978 9978 9978 9978 9978 9978 9977 9976 9976 9975 9975 9974 9974 9973 9973 9973 9973 9973 9973 9974 9975 9975 9975 9975 9975 9975 9975 9973 9972 9970 9968 9966 9964 9963 9962 9962 9962 9962 9961 9961 9960 9959 9958 9956 9955 9952 9949 9946 9942 9940 9938 9937 9937 9937 9936 9936 9935 9933 9933 9932 9932 9932 9931 9930 9930 9929 9928 9928